Time,TemperatureF,DewpointF,PressureIn,WindDirection,WindDirectionDegrees,WindSpeedMPH,WindSpeedGustMPH,Humidity,HourlyPrecipIn,Conditions,Clouds,dailyrainin,SoftwareType,DateUTC
2013-04-14 00:00:00,40.6,33.6,29.94,NE,51,1.0,8.0,76,0.00,,,0.04,Wunderground v.1.15,2013-04-14 04:00:00,
2013-04-14 00:05:00,40.7,33.7,29.95,NE,51,1.0,8.0,76,0.00,,,0.00,Wunderground v.1.15,2013-04-14 04:05:00,
2013-04-14 00:10:00,40.9,33.9,29.95,NE,51,1.0,1.0,76,0.00,,,0.00,Wunderground v.1.15,2013-04-14 04:10:00,
2013-04-14 00:15:00,41.0,33.7,29.94,NE,51,0.0,8.0,75,0.00,,,0.00,Wunderground v.1.15,2013-04-14 04:15:00,
2013-04-14 00:20:00,41.3,33.6,29.94,NE,51,0.0,8.0,74,0.00,,,0.00,Wunderground v.1.15,2013-04-14 04:20:00,
2013-04-14 00:25:00,41.3,33.6,29.95,NE,51,0.0,8.0,74,0.00,,,0.00,Wunderground v.1.15,2013-04-14 04:25:00,
2013-04-14 00:30:00,41.2,33.5,29.95,NE,51,0.0,8.0,74,0.00,,,0.00,Wunderground v.1.15,2013-04-14 04:30:00,
2013-04-14 00:35:00,41.1,33.4,29.95,NE,51,0.0,8.0,74,0.00,,,0.00,Wunderground v.1.15,2013-04-14 04:35:00,
2013-04-14 00:40:00,41.1,33.4,29.95,NE,51,0.0,8.0,74,0.00,,,0.00,Wunderground v.1.15,2013-04-14 04:40:00,
2013-04-14 00:50:00,41.0,33.3,29.95,NE,51,0.0,8.0,74,0.00,,,0.00,Wunderground v.1.15,2013-04-14 04:50:00,
2013-04-14 00:55:00,40.8,33.5,29.96,NE,51,0.0,8.0,75,0.00,,,0.00,Wunderground v.1.15,2013-04-14 04:55:00,
2013-04-14 01:00:00,40.6,33.3,29.96,NE,51,0.0,8.0,75,0.00,,,0.00,Wunderground v.1.15,2013-04-14 05:00:00,
2013-04-14 01:05:00,40.6,33.3,29.96,NE,51,0.0,8.0,75,0.00,,,0.00,Wunderground v.1.15,2013-04-14 05:05:00,
2013-04-14 01:10:00,40.8,33.8,29.96,NE,51,0.0,8.0,76,0.00,,,0.00,Wunderground v.1.15,2013-04-14 05:10:00,
2013-04-14 01:15:00,40.7,33.4,29.96,NE,51,0.0,8.0,75,0.00,,,0.00,Wunderground v.1.15,2013-04-14 05:15:00,
2013-04-14 01:20:00,40.9,33.2,29.96,NE,51,0.0,8.0,74,0.00,,,0.00,Wunderground v.1.15,2013-04-14 05:20:00,
2013-04-14 01:25:00,41.1,33.4,29.96,NE,51,0.0,8.0,74,0.00,,,0.00,Wunderground v.1.15,2013-04-14 05:25:00,
2013-04-14 01:30:00,41.3,33.3,29.96,NE,51,0.0,8.0,73,0.00,,,0.00,Wunderground v.1.15,2013-04-14 05:30:00,
2013-04-14 01:40:00,41.4,33.4,29.96,NE,51,0.0,8.0,73,0.00,,,0.00,Wunderground v.1.15,2013-04-14 05:40:00,
2013-04-14 01:45:00,41.4,33.4,29.95,NE,51,0.0,8.0,73,0.00,,,0.00,Wunderground v.1.15,2013-04-14 05:45:00,
2013-04-14 01:50:00,41.5,33.5,29.95,NE,51,0.0,8.0,73,0.00,,,0.00,Wunderground v.1.15,2013-04-14 05:50:00,
2013-04-14 01:55:00,41.5,33.1,29.95,NE,51,0.0,8.0,72,0.00,,,0.00,Wunderground v.1.15,2013-04-14 05:55:00,
2013-04-14 02:05:00,41.3,33.3,29.96,NE,51,0.0,8.0,73,0.00,,,0.00,Wunderground v.1.15,2013-04-14 06:05:00,
2013-04-14 02:10:00,41.1,33.1,29.96,NE,34,0.0,8.0,73,0.00,,,0.00,Wunderground v.1.15,2013-04-14 06:10:00,
2013-04-14 02:20:00,41.4,32.7,29.96,NE,36,0.0,8.0,71,0.00,,,0.00,Wunderground v.1.15,2013-04-14 06:20:00,
2013-04-14 02:25:00,41.6,33.6,29.95,WSW,251,0.0,8.0,73,0.00,,,0.00,Wunderground v.1.15,2013-04-14 06:25:00,
2013-04-14 02:30:00,41.4,34.1,29.95,NW,307,1.0,8.0,75,0.00,,,0.00,Wunderground v.1.15,2013-04-14 06:30:00,
2013-04-14 02:35:00,41.3,33.3,29.94,WNW,288,1.0,8.0,73,0.00,,,0.00,Wunderground v.1.15,2013-04-14 06:35:00,
2013-04-14 02:40:00,41.2,33.9,29.94,WNW,287,0.0,8.0,75,0.00,,,0.00,Wunderground v.1.15,2013-04-14 06:40:00,
2013-04-14 02:45:00,41.0,33.7,29.94,WNW,287,0.0,8.0,75,0.00,,,0.00,Wunderground v.1.15,2013-04-14 06:45:00,
2013-04-14 02:50:00,40.7,33.4,29.94,WNW,287,0.0,8.0,75,0.00,,,0.00,Wunderground v.1.15,2013-04-14 06:50:00,
2013-04-14 03:00:00,40.5,33.2,29.94,West,271,0.0,8.0,75,0.00,,,0.00,Wunderground v.1.15,2013-04-14 07:00:00,
2013-04-14 03:05:00,40.4,33.1,29.95,West,271,0.0,8.0,75,0.00,,,0.00,Wunderground v.1.15,2013-04-14 07:05:00,
2013-04-14 03:10:00,40.5,32.9,29.94,West,271,0.0,8.0,74,0.00,,,0.00,Wunderground v.1.15,2013-04-14 07:10:00,
2013-04-14 03:15:00,40.6,32.6,29.94,West,271,0.0,8.0,73,0.00,,,0.00,Wunderground v.1.15,2013-04-14 07:15:00,
2013-04-14 03:25:00,41.4,33.0,29.95,West,274,0.0,8.0,72,0.00,,,0.00,Wunderground v.1.15,2013-04-14 07:25:00,
2013-04-14 03:30:00,41.8,33.1,29.95,NW,315,0.0,8.0,71,0.00,,,0.00,Wunderground v.1.15,2013-04-14 07:30:00,
2013-04-14 03:35:00,42.4,33.3,29.94,NW,309,1.0,8.0,70,0.00,,,0.00,Wunderground v.1.15,2013-04-14 07:35:00,
2013-04-14 03:40:00,42.7,33.6,29.95,NW,309,1.0,1.0,70,0.00,,,0.00,Wunderground v.1.15,2013-04-14 07:40:00,
2013-04-14 03:45:00,42.8,33.3,29.94,NW,315,0.0,8.0,69,0.00,,,0.00,Wunderground v.1.15,2013-04-14 07:45:00,
2013-04-14 03:50:00,42.8,33.0,29.95,NNW,333,0.0,8.0,68,0.00,,,0.00,Wunderground v.1.15,2013-04-14 07:50:00,
2013-04-14 04:00:00,42.7,33.2,29.95,NE,40,1.0,8.0,69,0.00,,,0.00,Wunderground v.1.15,2013-04-14 08:00:00,
2013-04-14 04:05:00,42.6,33.1,29.96,NE,37,2.0,8.0,69,0.00,,,0.00,Wunderground v.1.15,2013-04-14 08:05:00,
2013-04-14 04:10:00,42.1,33.0,29.96,NNE,12,2.0,8.0,70,0.00,,,0.00,Wunderground v.1.15,2013-04-14 08:10:00,
2013-04-14 04:15:00,41.8,33.1,29.96,NNE,24,2.0,8.0,71,0.00,,,0.00,Wunderground v.1.15,2013-04-14 08:15:00,
2013-04-14 04:20:00,41.5,33.1,29.95,NNE,25,1.0,8.0,72,0.00,,,0.00,Wunderground v.1.15,2013-04-14 08:20:00,
2013-04-14 04:25:00,41.1,33.1,29.95,NNE,25,1.0,8.0,73,0.00,,,0.00,Wunderground v.1.15,2013-04-14 08:25:00,
2013-04-14 04:35:00,40.5,32.9,29.95,NNE,25,0.0,8.0,74,0.00,,,0.00,Wunderground v.1.15,2013-04-14 08:35:00,
2013-04-14 04:40:00,40.1,32.8,29.96,NNE,25,0.0,8.0,75,0.00,,,0.00,Wunderground v.1.15,2013-04-14 08:40:00,
2013-04-14 04:45:00,39.4,32.5,29.96,NNE,25,0.0,8.0,76,0.00,,,0.00,Wunderground v.1.15,2013-04-14 08:45:00,
2013-04-14 04:50:00,38.9,32.3,29.96,NNE,25,1.0,8.0,77,0.00,,,0.00,Wunderground v.1.15,2013-04-14 08:50:00,
2013-04-14 04:55:00,38.9,32.3,29.96,NNE,28,1.0,8.0,77,0.00,,,0.00,Wunderground v.1.15,2013-04-14 08:55:00,
2013-04-14 05:00:00,38.7,32.4,29.96,NNE,28,1.0,1.0,78,0.00,,,0.00,Wunderground v.1.15,2013-04-14 09:00:00,
2013-04-14 05:05:00,38.6,32.3,29.96,NNE,33,1.0,8.0,78,0.00,,,0.00,Wunderground v.1.15,2013-04-14 09:05:00,
2013-04-14 05:10:00,38.4,32.5,29.96,NNE,33,0.0,8.0,79,0.00,,,0.00,Wunderground v.1.15,2013-04-14 09:10:00,
2013-04-14 05:20:00,38.3,32.4,29.97,NE,34,1.0,8.0,79,0.00,,,0.00,Wunderground v.1.15,2013-04-14 09:20:00,
2013-04-14 05:25:00,38.2,32.3,29.97,NE,34,1.0,8.0,79,0.00,,,0.00,Wunderground v.1.15,2013-04-14 09:25:00,
2013-04-14 05:30:00,38.1,32.5,29.97,ENE,57,1.0,8.0,80,0.00,,,0.00,Wunderground v.1.15,2013-04-14 09:30:00,
2013-04-14 05:35:00,37.9,32.3,29.97,ENE,57,1.0,8.0,80,0.00,,,0.00,Wunderground v.1.15,2013-04-14 09:35:00,
2013-04-14 05:40:00,37.9,32.6,29.97,ENE,57,1.0,8.0,81,0.00,,,0.00,Wunderground v.1.15,2013-04-14 09:40:00,
2013-04-14 05:45:00,37.9,32.6,29.97,ENE,57,1.0,8.0,81,0.00,,,0.00,Wunderground v.1.15,2013-04-14 09:45:00,
2013-04-14 05:50:00,37.7,32.4,29.97,ENE,57,1.0,8.0,81,0.00,,,0.00,Wunderground v.1.15,2013-04-14 09:50:00,
2013-04-14 06:00:00,36.8,32.1,29.97,ENE,63,2.0,2.0,83,0.00,,,0.00,Wunderground v.1.15,2013-04-14 10:00:00,
2013-04-14 06:05:00,36.4,32.3,29.97,ENE,63,1.0,8.0,85,0.00,,,0.00,Wunderground v.1.15,2013-04-14 10:05:00,
2013-04-14 06:10:00,36.2,32.1,29.98,NE,44,0.0,8.0,85,0.00,,,0.00,Wunderground v.1.15,2013-04-14 10:10:00,
2013-04-14 06:15:00,35.9,32.1,29.98,NE,44,0.0,8.0,86,0.00,,,0.00,Wunderground v.1.15,2013-04-14 10:15:00,
2013-04-14 06:20:00,35.6,32.1,29.98,NE,44,0.0,8.0,87,0.00,,,0.00,Wunderground v.1.15,2013-04-14 10:20:00,
2013-04-14 06:25:00,35.3,31.8,29.98,NE,51,0.0,8.0,87,0.00,,,0.00,Wunderground v.1.15,2013-04-14 10:25:00,
2013-04-14 06:35:00,35.3,32.4,29.99,NE,51,1.0,8.0,89,0.00,,,0.00,Wunderground v.1.15,2013-04-14 10:35:00,
2013-04-14 06:45:00,35.3,32.7,29.99,NE,51,0.0,8.0,90,0.00,,,0.00,Wunderground v.1.15,2013-04-14 10:45:00,
2013-04-14 06:50:00,35.6,33.2,30.00,NE,51,1.0,1.0,91,0.00,,,0.00,Wunderground v.1.15,2013-04-14 10:50:00,
2013-04-14 06:55:00,35.9,33.3,30.00,NE,51,1.0,8.0,90,0.00,,,0.00,Wunderground v.1.15,2013-04-14 10:55:00,
2013-04-14 07:00:00,36.2,33.8,30.00,NE,51,0.0,8.0,91,0.00,,,0.00,Wunderground v.1.15,2013-04-14 11:00:00,
2013-04-14 07:05:00,36.3,33.9,30.00,NE,51,0.0,8.0,91,0.00,,,0.00,Wunderground v.1.15,2013-04-14 11:05:00,
2013-04-14 07:10:00,36.6,34.2,30.00,NE,51,0.0,8.0,91,0.00,,,0.00,Wunderground v.1.15,2013-04-14 11:10:00,
2013-04-14 07:15:00,36.9,34.5,30.01,NE,51,0.0,8.0,91,0.00,,,0.00,Wunderground v.1.15,2013-04-14 11:15:00,
2013-04-14 07:25:00,37.7,35.0,30.01,NE,51,0.0,8.0,90,0.00,,,0.00,Wunderground v.1.15,2013-04-14 11:25:00,
2013-04-14 07:30:00,38.1,35.1,30.01,NE,51,0.0,8.0,89,0.00,,,0.00,Wunderground v.1.15,2013-04-14 11:30:00,
2013-04-14 07:35:00,38.6,35.6,30.01,NE,51,0.0,8.0,89,0.00,,,0.00,Wunderground v.1.15,2013-04-14 11:35:00,
2013-04-14 07:40:00,39.2,35.9,30.02,NE,51,0.0,8.0,88,0.00,,,0.00,Wunderground v.1.15,2013-04-14 11:40:00,
2013-04-14 07:45:00,39.8,36.2,30.02,NE,51,0.0,8.0,87,0.00,,,0.00,Wunderground v.1.15,2013-04-14 11:45:00,
2013-04-14 07:50:00,40.1,36.0,30.02,ENE,64,0.0,8.0,85,0.00,,,0.00,Wunderground v.1.15,2013-04-14 11:50:00,
2013-04-14 08:00:00,40.7,35.9,30.02,NE,55,1.0,8.0,83,0.00,,,0.00,Wunderground v.1.15,2013-04-14 12:00:00,
2013-04-14 08:05:00,40.8,35.7,30.02,ENE,76,1.0,8.0,82,0.00,,,0.00,Wunderground v.1.15,2013-04-14 12:05:00,
2013-04-14 08:10:00,40.9,35.5,30.02,NNE,22,0.0,8.0,81,0.00,,,0.00,Wunderground v.1.15,2013-04-14 12:10:00,
2013-04-14 08:15:00,40.9,35.5,30.02,NNE,22,1.0,8.0,81,0.00,,,0.00,Wunderground v.1.15,2013-04-14 12:15:00,
2013-04-14 08:20:00,41.1,35.7,30.02,ENE,78,1.0,1.0,81,0.00,,,0.00,Wunderground v.1.15,2013-04-14 12:20:00,
2013-04-14 08:25:00,41.2,35.8,30.02,NNE,29,1.0,8.0,81,0.00,,,0.00,Wunderground v.1.15,2013-04-14 12:25:00,
2013-04-14 08:30:00,41.5,35.8,30.02,North,355,1.0,1.0,80,0.00,,,0.00,Wunderground v.1.15,2013-04-14 12:30:00,
2013-04-14 08:40:00,41.7,35.3,30.02,NE,36,2.0,8.0,78,0.00,,,0.00,Wunderground v.1.15,2013-04-14 12:40:00,
2013-04-14 08:45:00,41.9,35.2,30.02,NNE,16,2.0,8.0,77,0.00,,,0.00,Wunderground v.1.15,2013-04-14 12:45:00,
2013-04-14 08:50:00,42.0,35.0,30.02,North,355,1.0,1.0,76,0.00,,,0.00,Wunderground v.1.15,2013-04-14 12:50:00,
2013-04-14 08:55:00,42.3,34.9,30.02,NW,324,1.0,8.0,75,0.00,,,0.00,Wunderground v.1.15,2013-04-14 12:55:00,
2013-04-14 09:00:00,42.6,34.9,30.02,North,10,1.0,8.0,74,0.00,,,0.00,Wunderground v.1.15,2013-04-14 13:00:00,
2013-04-14 09:05:00,42.9,35.2,30.02,North,355,1.0,8.0,74,0.00,,,0.00,Wunderground v.1.15,2013-04-14 13:05:00,
2013-04-14 09:10:00,42.8,34.4,30.02,WNW,288,1.0,1.0,72,0.00,,,0.00,Wunderground v.1.15,2013-04-14 13:10:00,
2013-04-14 09:20:00,43.4,35.0,30.02,NE,37,3.0,3.0,72,0.00,,,0.00,Wunderground v.1.15,2013-04-14 13:20:00,
2013-04-14 09:25:00,43.8,35.0,30.02,NNE,19,2.0,8.0,71,0.00,,,0.00,Wunderground v.1.15,2013-04-14 13:25:00,
2013-04-14 09:30:00,43.6,35.2,30.03,NW,312,2.0,2.0,72,0.00,,,0.00,Wunderground v.1.15,2013-04-14 13:30:00,
2013-04-14 09:35:00,43.3,35.2,30.03,NW,315,2.0,8.0,73,0.00,,,0.00,Wunderground v.1.15,2013-04-14 13:35:00,
2013-04-14 09:40:00,43.2,35.1,30.03,NNW,333,2.0,8.0,73,0.00,,,0.00,Wunderground v.1.15,2013-04-14 13:40:00,
2013-04-14 09:45:00,42.9,34.5,30.03,WNW,286,3.0,8.0,72,0.00,,,0.00,Wunderground v.1.15,2013-04-14 13:45:00,
2013-04-14 09:50:00,42.9,34.5,30.03,ENE,59,3.0,3.0,72,0.00,,,0.00,Wunderground v.1.15,2013-04-14 13:50:00,
2013-04-14 09:55:00,42.6,33.1,30.03,NE,40,3.0,6.0,69,0.00,,,0.00,Wunderground v.1.15,2013-04-14 13:55:00,
2013-04-14 10:00:00,42.5,33.0,30.03,NW,315,3.0,8.0,69,0.00,,,0.00,Wunderground v.1.15,2013-04-14 14:00:00,
2013-04-14 10:05:00,42.6,33.1,30.03,NNW,329,3.0,8.0,69,0.00,,,0.00,Wunderground v.1.15,2013-04-14 14:05:00,
2013-04-14 10:15:00,42.8,32.2,30.04,NNW,333,3.0,8.0,66,0.00,,,0.00,Wunderground v.1.15,2013-04-14 14:15:00,
2013-04-14 10:20:00,42.9,33.1,30.04,North,5,4.0,4.0,68,0.00,,,0.00,Wunderground v.1.15,2013-04-14 14:20:00,
2013-04-14 10:25:00,43.3,33.4,30.04,NW,313,2.0,8.0,68,0.00,,,0.00,Wunderground v.1.15,2013-04-14 14:25:00,
2013-04-14 10:30:00,44.9,33.5,30.04,ENE,67,3.0,8.0,64,0.00,,,0.00,Wunderground v.1.15,2013-04-14 14:30:00,
2013-04-14 10:35:00,45.8,32.7,30.04,NNW,346,4.0,8.0,60,0.00,,,0.00,Wunderground v.1.15,2013-04-14 14:35:00,
2013-04-14 10:40:00,45.2,32.1,30.04,WNW,290,3.0,8.0,60,0.00,,,0.00,Wunderground v.1.15,2013-04-14 14:40:00,
2013-04-14 10:50:00,43.7,29.0,30.04,NE,36,3.0,3.0,56,0.00,,,0.00,Wunderground v.1.15,2013-04-14 14:50:00,
2013-04-14 10:55:00,43.7,28.1,30.05,North,355,3.0,8.0,54,0.00,,,0.00,Wunderground v.1.15,2013-04-14 14:55:00,
2013-04-14 11:00:00,43.8,28.7,30.05,North,360,3.0,3.0,55,0.00,,,0.00,Wunderground v.1.15,2013-04-14 15:00:00,
2013-04-14 11:05:00,44.5,28.4,30.05,NNW,330,3.0,4.0,53,0.00,,,0.00,Wunderground v.1.15,2013-04-14 15:05:00,
2013-04-14 11:10:00,44.7,29.5,30.05,ENE,74,3.0,3.0,55,0.00,,,0.00,Wunderground v.1.15,2013-04-14 15:10:00,
2013-04-14 11:15:00,44.6,29.0,30.05,NNW,333,2.0,8.0,54,0.00,,,0.00,Wunderground v.1.15,2013-04-14 15:15:00,
2013-04-14 11:20:00,44.2,28.6,30.05,North,5,2.0,8.0,54,0.00,,,0.00,Wunderground v.1.15,2013-04-14 15:20:00,
2013-04-14 11:25:00,43.9,28.8,30.05,NNW,337,3.0,8.0,55,0.00,,,0.00,Wunderground v.1.15,2013-04-14 15:25:00,
2013-04-14 11:35:00,43.9,28.3,30.05,NNE,19,3.0,8.0,54,0.00,,,0.00,Wunderground v.1.15,2013-04-14 15:35:00,
2013-04-14 11:40:00,44.3,28.2,30.05,NNW,341,3.0,3.0,53,0.00,,,0.00,Wunderground v.1.15,2013-04-14 15:40:00,
2013-04-14 11:45:00,44.7,28.1,30.05,North,11,3.0,8.0,52,0.00,,,0.00,Wunderground v.1.15,2013-04-14 15:45:00,
2013-04-14 11:55:00,45.9,28.3,30.05,NW,324,3.0,8.0,50,0.00,,,0.00,Wunderground v.1.15,2013-04-14 15:55:00,
2013-04-14 12:00:00,46.2,28.6,30.05,NW,313,3.0,3.0,50,0.00,,,0.00,Wunderground v.1.15,2013-04-14 16:00:00,
2013-04-14 12:05:00,46.7,28.0,30.06,ENE,74,3.0,8.0,48,0.00,,,0.00,Wunderground v.1.15,2013-04-14 16:05:00,
2013-04-14 12:15:00,47.4,28.2,30.05,NNE,24,3.0,8.0,47,0.00,,,0.00,Wunderground v.1.15,2013-04-14 16:15:00,
2013-04-14 12:20:00,47.3,27.5,30.06,NNW,331,3.0,3.0,46,0.00,,,0.00,Wunderground v.1.15,2013-04-14 16:20:00,
2013-04-14 12:30:00,45.0,30.2,30.07,NNE,33,3.0,8.0,56,0.00,,,0.00,Wunderground v.1.15,2013-04-14 16:30:00,
2013-04-14 12:35:00,44.2,30.8,30.06,NNW,348,3.0,8.0,59,0.00,,,0.00,Wunderground v.1.15,2013-04-14 16:35:00,
2013-04-14 12:40:00,44.0,31.0,30.06,NNE,24,4.0,8.0,60,0.00,,,0.00,Wunderground v.1.15,2013-04-14 16:40:00,
2013-04-14 12:45:00,44.1,30.7,30.07,ENE,58,5.0,11.0,59,0.00,,,0.00,Wunderground v.1.15,2013-04-14 16:45:00,
2013-04-14 12:50:00,44.2,30.8,30.06,ENE,60,6.0,8.0,59,0.00,,,0.00,Wunderground v.1.15,2013-04-14 16:50:00,
2013-04-14 13:00:00,46.5,31.2,30.06,NE,47,3.0,3.0,55,0.00,,,0.00,Wunderground v.1.15,2013-04-14 17:00:00,
2013-04-14 13:10:00,46.9,28.7,30.06,NE,51,5.0,5.0,49,0.00,,,0.00,Wunderground v.1.15,2013-04-14 17:10:00,
2013-04-14 13:15:00,47.1,29.9,30.06,NNE,28,6.0,6.0,51,0.00,,,0.00,Wunderground v.1.15,2013-04-14 17:15:00,
2013-04-14 13:20:00,47.6,29.9,30.06,NNW,338,5.0,5.0,50,0.00,,,0.00,Wunderground v.1.15,2013-04-14 17:20:00,
2013-04-14 13:25:00,48.4,29.6,30.06,NNE,13,4.0,8.0,48,0.00,,,0.00,Wunderground v.1.15,2013-04-14 17:25:00,
2013-04-14 13:30:00,48.0,28.2,30.06,NE,35,5.0,5.0,46,0.00,,,0.00,Wunderground v.1.15,2013-04-14 17:30:00,
2013-04-14 13:35:00,47.8,28.0,30.06,ENE,61,5.0,8.0,46,0.00,,,0.00,Wunderground v.1.15,2013-04-14 17:35:00,
2013-04-14 13:45:00,47.6,29.4,30.06,NNW,338,4.0,8.0,49,0.00,,,0.00,Wunderground v.1.15,2013-04-14 17:45:00,
2013-04-14 13:50:00,47.8,29.0,30.06,NNW,340,5.0,5.0,48,0.00,,,0.00,Wunderground v.1.15,2013-04-14 17:50:00,
2013-04-14 13:55:00,47.9,28.6,30.07,NE,43,4.0,7.0,47,0.00,,,0.00,Wunderground v.1.15,2013-04-14 17:55:00,
2013-04-14 14:00:00,46.6,28.9,30.07,NW,321,5.0,8.0,50,0.00,,,0.00,Wunderground v.1.15,2013-04-14 18:00:00,
2013-04-14 14:05:00,46.2,29.1,30.07,ENE,67,7.0,11.0,51,0.00,,,0.00,Wunderground v.1.15,2013-04-14 18:05:00,
2013-04-14 14:10:00,46.1,29.9,30.07,NNE,28,6.0,8.0,53,0.00,,,0.00,Wunderground v.1.15,2013-04-14 18:10:00,
2013-04-14 14:15:00,45.7,29.1,30.07,NE,42,6.0,8.0,52,0.00,,,0.00,Wunderground v.1.15,2013-04-14 18:15:00,
2013-04-14 14:25:00,45.9,31.1,30.07,WNW,296,3.0,8.0,56,0.00,,,0.00,Wunderground v.1.15,2013-04-14 18:25:00,
2013-04-14 14:30:00,46.7,29.0,30.07,North,350,3.0,8.0,50,0.00,,,0.00,Wunderground v.1.15,2013-04-14 18:30:00,
2013-04-14 14:35:00,47.7,29.5,30.07,NNW,336,4.0,8.0,49,0.00,,,0.00,Wunderground v.1.15,2013-04-14 18:35:00,
2013-04-14 14:40:00,48.0,28.2,30.08,NE,42,5.0,10.0,46,0.00,,,0.00,Wunderground v.1.15,2013-04-14 18:40:00,
2013-04-14 14:45:00,47.0,28.3,30.08,NNE,13,5.0,10.0,48,0.00,,,0.00,Wunderground v.1.15,2013-04-14 18:45:00,
2013-04-14 14:50:00,46.6,27.9,30.08,NNW,334,4.0,4.0,48,0.00,,,0.00,Wunderground v.1.15,2013-04-14 18:50:00,
2013-04-14 14:55:00,46.3,27.7,30.08,NNW,344,4.0,8.0,48,0.00,,,0.00,Wunderground v.1.15,2013-04-14 18:55:00,
2013-04-14 15:05:00,47.1,28.4,30.08,NNE,30,4.0,10.0,48,0.00,,,0.00,Wunderground v.1.15,2013-04-14 19:05:00,
2013-04-14 15:10:00,46.3,27.2,30.08,NE,56,7.0,7.0,47,0.00,,,0.00,Wunderground v.1.15,2013-04-14 19:10:00,
2013-04-14 15:15:00,45.9,27.8,30.08,NNE,12,6.0,8.0,49,0.00,,,0.00,Wunderground v.1.15,2013-04-14 19:15:00,
2013-04-14 15:20:00,46.1,27.5,30.08,WNW,300,4.0,4.0,48,0.00,,,0.00,Wunderground v.1.15,2013-04-14 19:20:00,
2013-04-14 15:30:00,45.7,28.1,30.08,NNE,17,5.0,8.0,50,0.00,,,0.00,Wunderground v.1.15,2013-04-14 19:30:00,
2013-04-14 15:35:00,45.7,29.1,30.08,ENE,71,6.0,14.0,52,0.00,,,0.00,Wunderground v.1.15,2013-04-14 19:35:00,
2013-04-14 15:40:00,45.3,28.2,30.09,NNE,27,7.0,8.0,51,0.00,,,0.00,Wunderground v.1.15,2013-04-14 19:40:00,
2013-04-14 15:45:00,46.0,28.4,30.09,North,5,6.0,9.0,50,0.00,,,0.00,Wunderground v.1.15,2013-04-14 19:45:00,
2013-04-14 15:50:00,45.8,27.7,30.08,NE,36,5.0,5.0,49,0.00,,,0.00,Wunderground v.1.15,2013-04-14 19:50:00,
2013-04-14 15:55:00,45.9,27.8,30.08,ENE,72,5.0,8.0,49,0.00,,,0.00,Wunderground v.1.15,2013-04-14 19:55:00,
2013-04-14 16:00:00,46.3,27.7,30.07,ENE,66,5.0,8.0,48,0.00,,,0.00,Wunderground v.1.15,2013-04-14 20:00:00,
2013-04-14 16:05:00,46.6,27.9,30.08,NNE,26,5.0,8.0,48,0.00,,,0.00,Wunderground v.1.15,2013-04-14 20:05:00,
2013-04-14 16:15:00,46.7,28.0,30.08,ENE,63,5.0,8.0,48,0.00,,,0.00,Wunderground v.1.15,2013-04-14 20:15:00,
2013-04-14 16:20:00,47.6,27.8,30.08,NNW,348,3.0,3.0,46,0.00,,,0.00,Wunderground v.1.15,2013-04-14 20:20:00,
2013-04-14 16:25:00,47.3,27.5,30.09,NNE,29,4.0,4.0,46,0.00,,,0.00,Wunderground v.1.15,2013-04-14 20:25:00,
2013-04-14 16:30:00,46.9,27.2,30.09,NNE,17,5.0,11.0,46,0.00,,,0.00,Wunderground v.1.15,2013-04-14 20:30:00,
2013-04-14 16:35:00,46.5,27.3,30.09,NE,38,5.0,11.0,47,0.00,,,0.00,Wunderground v.1.15,2013-04-14 20:35:00,
2013-04-14 16:40:00,46.2,26.5,30.10,NE,51,5.0,5.0,46,0.00,,,0.00,Wunderground v.1.15,2013-04-14 20:40:00,
2013-04-14 16:45:00,45.8,27.2,30.10,NNE,24,4.0,10.0,48,0.00,,,0.00,Wunderground v.1.15,2013-04-14 20:45:00,
2013-04-14 16:50:00,45.4,27.3,30.10,ENE,71,5.0,14.0,49,0.00,,,0.00,Wunderground v.1.15,2013-04-14 20:50:00,
2013-04-14 16:55:00,45.4,27.3,30.11,ENE,57,7.0,14.0,49,0.00,,,0.00,Wunderground v.1.15,2013-04-14 20:55:00,
2013-04-14 17:00:00,45.5,26.9,30.10,NE,53,5.0,5.0,48,0.00,,,0.00,Wunderground v.1.15,2013-04-14 21:00:00,
2013-04-14 17:10:00,46.5,27.3,30.11,NNE,13,4.0,4.0,47,0.00,,,0.00,Wunderground v.1.15,2013-04-14 21:10:00,
2013-04-14 17:15:00,46.1,26.4,30.12,NNW,328,4.0,6.0,46,0.00,,,0.00,Wunderground v.1.15,2013-04-14 21:15:00,
2013-04-14 17:20:00,45.3,26.7,30.12,North,355,4.0,4.0,48,0.00,,,0.00,Wunderground v.1.15,2013-04-14 21:20:00,
2013-04-14 17:25:00,45.0,27.0,30.12,WNW,284,3.0,6.0,49,0.00,,,0.00,Wunderground v.1.15,2013-04-14 21:25:00,
2013-04-14 17:30:00,44.6,26.1,30.12,NNE,30,3.0,3.0,48,0.00,,,0.00,Wunderground v.1.15,2013-04-14 21:30:00,
2013-04-14 17:40:00,44.3,25.8,30.12,NW,323,3.0,3.0,48,0.00,,,0.00,Wunderground v.1.15,2013-04-14 21:40:00,
2013-04-14 17:45:00,44.5,26.5,30.12,NE,54,2.0,8.0,49,0.00,,,0.00,Wunderground v.1.15,2013-04-14 21:45:00,
2013-04-14 17:50:00,44.7,26.7,30.12,ENE,78,3.0,8.0,49,0.00,,,0.00,Wunderground v.1.15,2013-04-14 21:50:00,
2013-04-14 18:00:00,44.6,26.6,30.13,ENE,67,5.0,5.0,49,0.00,,,0.00,Wunderground v.1.15,2013-04-14 22:00:00,
2013-04-14 18:05:00,44.2,26.7,30.13,ENE,68,5.0,7.0,50,0.00,,,0.00,Wunderground v.1.15,2013-04-14 22:05:00,
2013-04-14 18:10:00,43.8,26.8,30.13,East,92,5.0,8.0,51,0.00,,,0.00,Wunderground v.1.15,2013-04-14 22:10:00,
2013-04-14 18:15:00,43.5,27.0,30.13,NE,38,6.0,8.0,52,0.00,,,0.00,Wunderground v.1.15,2013-04-14 22:15:00,
2013-04-14 18:25:00,43.2,26.7,30.14,NNE,12,5.0,8.0,52,0.00,,,0.00,Wunderground v.1.15,2013-04-14 22:25:00,
2013-04-14 18:30:00,43.2,27.2,30.14,NNE,15,5.0,8.0,53,0.00,,,0.00,Wunderground v.1.15,2013-04-14 22:30:00,
2013-04-14 18:35:00,43.1,27.1,30.14,NNE,29,4.0,8.0,53,0.00,,,0.00,Wunderground v.1.15,2013-04-14 22:35:00,
2013-04-14 18:40:00,43.0,27.0,30.14,ENE,69,4.0,8.0,53,0.00,,,0.00,Wunderground v.1.15,2013-04-14 22:40:00,
2013-04-14 18:45:00,42.9,26.5,30.14,NNE,28,4.0,8.0,52,0.00,,,0.00,Wunderground v.1.15,2013-04-14 22:45:00,
2013-04-14 18:55:00,42.6,26.2,30.15,NE,40,3.0,8.0,52,0.00,,,0.00,Wunderground v.1.15,2013-04-14 22:55:00,
2013-04-14 19:00:00,42.4,26.0,30.15,NNE,32,3.0,3.0,52,0.00,,,0.00,Wunderground v.1.15,2013-04-14 23:00:00,
2013-04-14 19:05:00,42.3,26.4,30.15,NNW,341,3.0,8.0,53,0.00,,,0.00,Wunderground v.1.15,2013-04-14 23:05:00,
2013-04-14 19:10:00,42.2,26.3,30.15,NE,47,3.0,3.0,53,0.00,,,0.00,Wunderground v.1.15,2013-04-14 23:10:00,
2013-04-14 19:15:00,42.0,25.6,30.15,ENE,76,3.0,8.0,52,0.00,,,0.00,Wunderground v.1.15,2013-04-14 23:15:00,
2013-04-14 19:25:00,41.7,25.8,30.16,NNE,31,3.0,8.0,53,0.00,,,0.00,Wunderground v.1.15,2013-04-14 23:25:00,
2013-04-14 19:30:00,41.5,25.6,30.17,North,5,3.0,3.0,53,0.00,,,0.00,Wunderground v.1.15,2013-04-14 23:30:00,
2013-04-14 19:40:00,41.3,25.9,30.17,NNE,32,1.0,8.0,54,0.00,,,0.00,Wunderground v.1.15,2013-04-14 23:40:00,
2013-04-14 19:45:00,41.1,25.7,30.17,NNE,32,1.0,8.0,54,0.00,,,0.00,Wunderground v.1.15,2013-04-14 23:45:00,
2013-04-14 19:50:00,40.8,25.9,30.18,NE,35,0.0,8.0,55,0.00,,,0.00,Wunderground v.1.15,2013-04-14 23:50:00,
2013-04-14 19:55:00,40.6,26.1,30.18,NE,38,1.0,8.0,56,0.00,,,0.00,Wunderground v.1.15,2013-04-14 23:55:00,
2013-04-14 20:00:00,40.4,25.9,30.18,ENE,76,1.0,8.0,56,0.00,,,0.00,Wunderground v.1.15,2013-04-15 00:00:00,
2013-04-14 20:05:00,40.3,25.8,30.19,ENE,71,1.0,8.0,56,0.00,,,0.00,Wunderground v.1.15,2013-04-15 00:05:00,
2013-04-14 20:10:00,40.2,25.7,30.19,ENE,71,0.0,8.0,56,0.00,,,0.00,Wunderground v.1.15,2013-04-15 00:10:00,
2013-04-14 20:20:00,39.8,26.2,30.19,NE,36,1.0,8.0,58,0.00,,,0.00,Wunderground v.1.15,2013-04-15 00:20:00,
2013-04-14 20:25:00,39.5,26.3,30.20,NE,36,0.0,8.0,59,0.00,,,0.00,Wunderground v.1.15,2013-04-15 00:25:00,
2013-04-14 20:30:00,39.2,26.1,30.20,NE,36,0.0,8.0,59,0.00,,,0.00,Wunderground v.1.15,2013-04-15 00:30:00,
2013-04-14 20:35:00,38.8,26.1,30.20,NE,36,0.0,8.0,60,0.00,,,0.00,Wunderground v.1.15,2013-04-15 00:35:00,
2013-04-14 20:40:00,38.5,25.8,30.20,NE,36,0.0,8.0,60,0.00,,,0.00,Wunderground v.1.15,2013-04-15 00:40:00,
2013-04-14 20:45:00,38.2,26.3,30.21,NE,36,0.0,8.0,62,0.00,,,0.00,Wunderground v.1.15,2013-04-15 00:45:00,
2013-04-14 20:50:00,37.8,25.9,30.21,NE,36,1.0,1.0,62,0.00,,,0.00,Wunderground v.1.15,2013-04-15 00:50:00,
2013-04-14 21:00:00,37.3,26.2,30.21,NE,36,0.0,8.0,64,0.00,,,0.00,Wunderground v.1.15,2013-04-15 01:00:00,
2013-04-14 21:05:00,37.1,26.0,30.22,NE,36,0.0,8.0,64,0.00,,,0.00,Wunderground v.1.15,2013-04-15 01:05:00,
2013-04-14 21:10:00,36.8,26.1,30.22,NE,36,0.0,8.0,65,0.00,,,0.00,Wunderground v.1.15,2013-04-15 01:10:00,
2013-04-14 21:15:00,36.6,25.9,30.22,NE,36,0.0,8.0,65,0.00,,,0.00,Wunderground v.1.15,2013-04-15 01:15:00,
2013-04-14 21:20:00,36.4,26.1,30.22,NE,36,0.0,8.0,66,0.00,,,0.00,Wunderground v.1.15,2013-04-15 01:20:00,
2013-04-14 21:25:00,36.1,26.2,30.22,NE,38,0.0,8.0,67,0.00,,,0.00,Wunderground v.1.15,2013-04-15 01:25:00,
2013-04-14 21:30:00,35.9,26.0,30.22,NE,41,1.0,1.0,67,0.00,,,0.00,Wunderground v.1.15,2013-04-15 01:30:00,
2013-04-14 21:40:00,35.9,26.0,30.22,NE,41,0.0,8.0,67,0.00,,,0.00,Wunderground v.1.15,2013-04-15 01:40:00,
2013-04-14 21:45:00,35.9,26.0,30.22,NE,41,0.0,8.0,67,0.00,,,0.00,Wunderground v.1.15,2013-04-15 01:45:00,
2013-04-14 21:50:00,35.9,26.0,30.22,NE,41,1.0,8.0,67,0.00,,,0.00,Wunderground v.1.15,2013-04-15 01:50:00,
2013-04-14 21:55:00,36.0,26.1,30.22,NE,41,1.0,8.0,67,0.00,,,0.00,Wunderground v.1.15,2013-04-15 01:55:00,
2013-04-14 22:00:00,35.9,26.0,30.22,NE,41,1.0,8.0,67,0.00,,,0.00,Wunderground v.1.15,2013-04-15 02:00:00,
2013-04-14 22:05:00,35.8,25.9,30.22,NE,41,1.0,8.0,67,0.00,,,0.00,Wunderground v.1.15,2013-04-15 02:05:00,
2013-04-14 22:15:00,35.6,26.1,30.22,NE,41,1.0,8.0,68,0.00,,,0.00,Wunderground v.1.15,2013-04-15 02:15:00,
2013-04-14 22:20:00,35.6,26.1,30.23,NE,41,0.0,8.0,68,0.00,,,0.00,Wunderground v.1.15,2013-04-15 02:20:00,
2013-04-14 22:25:00,35.6,26.1,30.23,NE,41,1.0,8.0,68,0.00,,,0.00,Wunderground v.1.15,2013-04-15 02:25:00,
2013-04-14 22:35:00,35.7,25.8,30.23,NE,41,1.0,8.0,67,0.00,,,0.00,Wunderground v.1.15,2013-04-15 02:35:00,
2013-04-14 22:40:00,35.7,26.2,30.23,NE,41,1.0,1.0,68,0.00,,,0.00,Wunderground v.1.15,2013-04-15 02:40:00,
2013-04-14 22:45:00,35.6,25.7,30.23,NE,41,1.0,8.0,67,0.00,,,0.00,Wunderground v.1.15,2013-04-15 02:45:00,
2013-04-14 22:50:00,35.5,25.6,30.23,NE,41,0.0,8.0,67,0.00,,,0.00,Wunderground v.1.15,2013-04-15 02:50:00,
2013-04-14 22:55:00,35.4,25.9,30.23,NE,41,0.0,8.0,68,0.00,,,0.00,Wunderground v.1.15,2013-04-15 02:55:00,
2013-04-14 23:00:00,35.2,25.7,30.23,NE,41,0.0,8.0,68,0.00,,,0.00,Wunderground v.1.15,2013-04-15 03:00:00,
2013-04-14 23:05:00,35.0,25.5,30.23,NE,41,0.0,8.0,68,0.00,,,0.00,Wunderground v.1.15,2013-04-15 03:05:00,
2013-04-14 23:15:00,35.0,25.5,30.22,NE,53,2.0,8.0,68,0.00,,,0.00,Wunderground v.1.15,2013-04-15 03:15:00,
2013-04-14 23:20:00,35.2,26.0,30.23,NNE,23,2.0,2.0,69,0.00,,,0.00,Wunderground v.1.15,2013-04-15 03:20:00,
2013-04-14 23:25:00,35.0,26.2,30.23,NNE,23,1.0,8.0,70,0.00,,,0.00,Wunderground v.1.15,2013-04-15 03:25:00,
2013-04-14 23:30:00,34.8,25.7,30.24,NNE,23,1.0,8.0,69,0.00,,,0.00,Wunderground v.1.15,2013-04-15 03:30:00,
2013-04-14 23:35:00,34.8,25.7,30.23,ENE,62,1.0,8.0,69,0.00,,,0.00,Wunderground v.1.15,2013-04-15 03:35:00,
2013-04-14 23:40:00,34.8,25.3,30.23,ENE,62,1.0,1.0,68,0.00,,,0.00,Wunderground v.1.15,2013-04-15 03:40:00,
2013-04-14 23:50:00,34.8,25.7,30.23,ENE,62,0.0,8.0,69,0.00,,,0.00,Wunderground v.1.15,2013-04-15 03:50:00,
2013-04-14 23:55:00,34.8,25.7,30.23,ENE,62,0.0,8.0,69,0.00,,,0.00,Wunderground v.1.15,2013-04-15 03:55:00,